Location: Hackbridge
(51.3833°N, 0.1500°W)
Time: 03:05:45
(UTC+00:00)

STARLINK-54 - Pass Details

Date: 13 October 2019
Orbit: 548 x 551 km, 53.0° (Epoch: 13 November)

Event Time Altitude Azimuth Distance (km) Brightness Sun altitude
Rises 18:15:00 0° 219° (SW) 2,706 7.7 -10.5°
Reaches altitude 10° 18:17:21 10° 210° (SSW) 1,816 6.7 -10.9°
Maximum altitude 18:21:05 34° 145° (SE) 914 4.4 -11.5°
Enters shadow 18:23:34 18° 90° (E) 1,385 5.0 -11.9°
